status,avgMeasuredTime,avgSpeed,extID,medianMeasuredTime,TIMESTAMP,vehicleCount,_id,REPORT_ID
OK,63,63,842,63,2014-08-01T07:55:00,3,20746566,192866
OK,65,61,842,65,2014-08-01T08:00:00,2,20746897,192866
OK,76,52,842,76,2014-08-01T08:05:00,2,20747346,192866
OK,78,50,842,78,2014-08-01T08:10:00,1,20747719,192866
OK,76,52,842,76,2014-08-01T08:15:00,1,20748168,192866
OK,74,53,842,74,2014-08-01T08:20:00,4,20748617,192866
OK,77,51,842,77,2014-08-01T08:25:00,5,20749066,192866
OK,123,32,842,123,2014-08-01T08:30:00,1,20749515,192866
OK,123,32,842,123,2014-08-01T08:35:00,0,20749964,192866
OK,76,52,842,76,2014-08-01T08:40:00,3,20750413,192866
OK,80,49,842,80,2014-08-01T08:45:00,2,20750862,192866
OK,68,58,842,68,2014-08-01T08:50:00,3,20751311,192866
OK,65,61,842,65,2014-08-01T08:55:00,4,20751760,192866
OK,65,61,842,65,2014-08-01T09:00:00,3,20752209,192866
OK,81,49,842,81,2014-08-01T09:05:00,2,20752658,192866
OK,76,52,842,76,2014-08-01T09:10:00,2,20753107,192866
OK,70,56,842,70,2014-08-01T09:15:00,2,20753556,192866
OK,69,57,842,69,2014-08-01T09:20:00,3,20754005,192866
OK,76,52,842,76,2014-08-01T09:25:00,2,20754454,192866
OK,66,60,842,66,2014-08-01T09:30:00,4,20754903,192866
OK,68,58,842,68,2014-08-01T09:35:00,3,20755352,192866
OK,80,49,842,80,2014-08-01T09:40:00,2,20755801,192866
OK,73,54,842,73,2014-08-01T09:45:00,2,20756250,192866
OK,79,50,842,79,2014-08-01T09:50:00,1,20756699,192866
OK,79,50,842,79,2014-08-01T09:55:00,5,20757148,192866
OK,88,45,842,88,2014-08-01T10:00:00,4,20757597,192866
OK,67,59,842,67,2014-08-01T10:05:00,4,20758046,192866
OK,67,59,842,67,2014-08-01T10:10:00,2,20758495,192866
OK,75,52,842,75,2014-08-01T10:15:00,4,20758944,192866
OK,75,52,842,75,2014-08-01T10:20:00,5,20759393,192866
OK,72,55,842,72,2014-08-01T10:25:00,7,20759842,192866
OK,74,53,842,74,2014-08-01T10:30:00,6,20760291,192866
OK,80,49,842,80,2014-08-01T10:35:00,3,20760740,192866
OK,77,51,842,77,2014-08-01T10:40:00,4,20761189,192866
OK,73,54,842,73,2014-08-01T10:45:00,5,20761638,192866
OK,76,52,842,76,2014-08-01T10:50:00,2,20762087,192866
OK,66,60,842,66,2014-08-01T10:55:00,4,20762536,192866
OK,71,55,842,71,2014-08-01T11:00:00,4,20762985,192866
OK,66,60,842,66,2014-08-01T11:05:00,3,20763434,192866
OK,70,56,842,70,2014-08-01T11:10:00,2,20763883,192866
OK,77,51,842,77,2014-08-01T11:15:00,2,20764331,192866
OK,79,50,842,79,2014-08-01T11:20:00,1,20764780,192866
OK,74,53,842,74,2014-08-01T11:25:00,2,20765229,192866
OK,80,49,842,80,2014-08-01T11:30:00,4,20765678,192866
OK,79,50,842,79,2014-08-01T11:35:00,7,20766127,192866
OK,62,64,842,62,2014-08-01T11:40:00,1,20766576,192866
OK,60,66,842,60,2014-08-01T11:45:00,2,20767025,192866
OK,60,66,842,60,2014-08-01T11:50:00,2,20767474,192866
OK,53,74,842,53,2014-08-01T11:55:00,0,20767923,192866
OK,73,54,842,73,2014-08-01T12:00:00,3,20768372,192866
OK,64,62,842,64,2014-08-01T12:05:00,5,20768821,192866
OK,61,65,842,61,2014-08-01T12:10:00,3,20769270,192866
OK,78,50,842,78,2014-08-01T12:15:00,1,20769719,192866
OK,78,50,842,78,2014-08-01T12:20:00,1,20770168,192866
OK,65,61,842,65,2014-08-01T12:25:00,1,20770617,192866
OK,75,52,842,75,2014-08-01T12:30:00,1,20771066,192866
OK,77,51,842,77,2014-08-01T12:35:00,1,20771515,192866
OK,65,61,842,65,2014-08-01T12:40:00,5,20771964,192866
OK,65,61,842,65,2014-08-01T12:45:00,5,20772413,192866
OK,61,65,842,61,2014-08-01T12:50:00,1,20772862,192866
OK,70,56,842,70,2014-08-01T12:55:00,2,20773311,192866
OK,78,50,842,78,2014-08-01T13:00:00,2,20773760,192866
OK,64,62,842,64,2014-08-01T13:05:00,3,20774209,192866
OK,64,62,842,64,2014-08-01T13:10:00,3,20774658,192866
OK,66,60,842,66,2014-08-01T13:15:00,3,20775107,192866
OK,77,51,842,77,2014-08-01T13:20:00,5,20775556,192866
OK,83,47,842,83,2014-08-01T13:25:00,6,20776005,192866
OK,83,47,842,83,2014-08-01T13:30:00,2,20776454,192866
OK,63,63,842,63,2014-08-01T13:35:00,1,20776903,192866
OK,74,53,842,74,2014-08-01T13:40:00,2,20777352,192866
OK,58,68,842,58,2014-08-01T13:45:00,3,20777801,192866
OK,58,68,842,58,2014-08-01T13:50:00,3,20778250,192866
OK,63,63,842,63,2014-08-01T13:55:00,2,20778699,192866
OK,71,55,842,71,2014-08-01T14:00:00,2,20779148,192866
OK,76,52,842,76,2014-08-01T14:05:00,3,20779597,192866
OK,74,53,842,74,2014-08-01T14:10:00,3,20780046,192866
OK,74,53,842,74,2014-08-01T14:15:00,3,20780495,192866
OK,64,62,842,64,2014-08-01T14:20:00,2,20780944,192866
OK,66,60,842,66,2014-08-01T14:25:00,4,20781393,192866
OK,68,58,842,68,2014-08-01T14:30:00,3,20781842,192866
OK,63,63,842,63,2014-08-01T14:35:00,1,20782291,192866
OK,63,63,842,63,2014-08-01T14:40:00,0,20782740,192866
OK,72,55,842,72,2014-08-01T14:45:00,1,20783189,192866
OK,72,55,842,72,2014-08-01T14:50:00,0,20783638,192866
OK,85,46,842,85,2014-08-01T14:55:00,1,20784087,192866
OK,85,46,842,85,2014-08-01T15:00:00,0,20784536,192866
OK,68,58,842,68,2014-08-01T15:05:00,1,20784985,192866
OK,68,58,842,68,2014-08-01T15:10:00,1,20785434,192866
OK,85,46,842,85,2014-08-01T15:15:00,0,20785883,192866
OK,100,39,842,100,2014-08-01T15:20:00,1,20786332,192866
OK,81,49,842,81,2014-08-01T15:25:00,4,20786781,192866
OK,75,52,842,75,2014-08-01T15:30:00,4,20787230,192866
OK,81,49,842,81,2014-08-01T15:35:00,3,20787679,192866
OK,85,46,842,85,2014-08-01T15:40:00,1,20788128,192866
OK,85,46,842,85,2014-08-01T15:45:00,0,20788577,192866
OK,64,62,842,64,2014-08-01T15:50:00,1,20789026,192866
OK,67,59,842,67,2014-08-01T15:55:00,2,20789475,192866
OK,70,56,842,70,2014-08-01T16:00:00,1,20789924,192866
OK,70,56,842,70,2014-08-01T16:05:00,0,20790373,192866
OK,64,62,842,64,2014-08-01T16:10:00,1,20790822,192866
OK,65,61,842,65,2014-08-01T16:15:00,2,20791271,192866
OK,67,59,842,67,2014-08-01T16:20:00,0,20791720,192866
OK,67,59,842,67,2014-08-01T16:25:00,0,20792169,192866
OK,59,67,842,59,2014-08-01T16:30:00,1,20792618,192866
OK,69,57,842,69,2014-08-01T16:35:00,3,20793067,192866
OK,72,55,842,72,2014-08-01T16:40:00,0,20793516,192866
OK,72,55,842,72,2014-08-01T16:45:00,0,20793965,192866
OK,72,55,842,72,2014-08-01T16:50:00,0,20794414,192866
OK,58,68,842,58,2014-08-01T16:55:00,1,20794863,192866
OK,58,68,842,58,2014-08-01T17:00:00,0,20795312,192866
OK,58,68,842,58,2014-08-01T17:05:00,0,20795761,192866
OK,58,68,842,58,2014-08-01T17:10:00,0,20796210,192866
OK,58,68,842,58,2014-08-01T17:15:00,0,20796659,192866
OK,58,68,842,58,2014-08-01T17:20:00,0,20797108,192866
OK,58,68,842,58,2014-08-01T17:25:00,0,20797557,192866
OK,58,68,842,58,2014-08-01T17:30:00,0,20798006,192866
OK,58,68,842,58,2014-08-01T17:35:00,0,20798455,192866
OK,58,68,842,58,2014-08-01T17:40:00,0,20798904,192866
OK,58,68,842,58,2014-08-01T17:45:00,0,20799353,192866
OK,58,68,842,58,2014-08-01T17:50:00,0,20799802,192866
OK,65,61,842,65,2014-08-01T17:55:00,1,20800251,192866
OK,65,61,842,65,2014-08-01T18:00:00,1,20800700,192866
OK,65,61,842,65,2014-08-01T18:05:00,0,20801149,192866
OK,65,61,842,65,2014-08-01T18:10:00,0,20801598,192866
OK,65,61,842,65,2014-08-01T18:15:00,0,20802047,192866
OK,65,61,842,65,2014-08-01T18:20:00,0,20802496,192866
OK,65,61,842,65,2014-08-01T18:25:00,0,20802945,192866
OK,67,59,842,67,2014-08-01T18:30:00,1,20803394,192866
OK,67,59,842,67,2014-08-01T18:35:00,0,20803843,192866
OK,67,59,842,67,2014-08-01T18:40:00,0,20804292,192866
OK,74,53,842,74,2014-08-01T18:45:00,1,20804741,192866
OK,74,53,842,74,2014-08-01T18:50:00,0,20805190,192866
OK,74,53,842,74,2014-08-01T18:55:00,0,20805639,192866
OK,62,64,842,62,2014-08-01T19:00:00,1,20806088,192866
OK,62,64,842,62,2014-08-01T19:05:00,1,20806537,192866
OK,62,64,842,62,2014-08-01T19:10:00,0,20806986,192866
OK,62,64,842,62,2014-08-01T19:15:00,0,20807435,192866
OK,62,64,842,62,2014-08-01T19:20:00,0,20807884,192866
OK,62,64,842,62,2014-08-01T19:25:00,0,20808333,192866
OK,62,64,842,62,2014-08-01T19:30:00,0,20808782,192866
OK,62,64,842,62,2014-08-01T19:35:00,0,20809231,192866
OK,55,72,842,55,2014-08-01T19:40:00,1,20809680,192866
OK,55,72,842,55,2014-08-01T19:45:00,1,20810129,192866
OK,55,72,842,55,2014-08-01T19:50:00,0,20810578,192866
OK,55,72,842,55,2014-08-01T19:55:00,0,20811027,192866
OK,55,72,842,55,2014-08-01T22:00:00,0,20816756,192866
OK,55,72,842,55,2014-08-01T22:05:00,0,20817205,192866
OK,51,77,842,51,2014-08-02T00:00:00,0,20823195,192866
OK,51,77,842,51,2014-08-02T00:05:00,0,20823644,192866
OK,51,77,842,51,2014-08-02T00:10:00,0,20824093,192866
OK,51,77,842,51,2014-08-02T00:15:00,0,20824542,192866
OK,51,77,842,51,2014-08-02T00:20:00,0,20824991,192866
OK,51,77,842,51,2014-08-02T00:25:00,0,20825440,192866
OK,51,77,842,51,2014-08-02T00:30:00,0,20825889,192866
OK,51,77,842,51,2014-08-02T00:35:00,0,20826338,192866
OK,51,77,842,51,2014-08-02T00:40:00,0,20826787,192866
OK,51,77,842,51,2014-08-02T00:45:00,0,20827236,192866
OK,51,77,842,51,2014-08-02T00:50:00,0,20827685,192866
OK,51,77,842,51,2014-08-02T00:55:00,0,20828134,192866
OK,51,77,842,51,2014-08-02T01:00:00,0,20828583,192866
OK,51,77,842,51,2014-08-02T01:05:00,0,20829032,192866
OK,51,77,842,51,2014-08-02T01:10:00,0,20829481,192866
OK,51,77,842,51,2014-08-02T01:15:00,0,20829930,192866
OK,51,77,842,51,2014-08-02T01:20:00,0,20830379,192866
OK,51,77,842,51,2014-08-02T01:25:00,0,20830828,192866
OK,51,77,842,51,2014-08-02T01:30:00,0,20831277,192866
OK,51,77,842,51,2014-08-02T01:35:00,0,20831726,192866
OK,51,77,842,51,2014-08-02T01:40:00,0,20832175,192866
OK,51,77,842,51,2014-08-02T01:45:00,0,20832624,192866
OK,51,77,842,51,2014-08-02T01:50:00,0,20833073,192866
OK,51,77,842,51,2014-08-02T01:55:00,0,20833522,192866
OK,51,77,842,51,2014-08-02T02:00:00,0,20833971,192866
OK,51,77,842,51,2014-08-02T02:05:00,0,20834420,192866
OK,51,77,842,51,2014-08-02T02:10:00,0,20834869,192866
OK,51,77,842,51,2014-08-02T02:15:00,0,20835318,192866
OK,51,77,842,51,2014-08-02T02:20:00,0,20835767,192866
OK,51,77,842,51,2014-08-02T02:25:00,0,20836216,192866
OK,51,77,842,51,2014-08-02T02:30:00,0,20836665,192866
OK,51,77,842,51,2014-08-02T02:35:00,0,20837114,192866
OK,51,77,842,51,2014-08-02T02:40:00,0,20837563,192866
OK,51,77,842,51,2014-08-02T02:45:00,0,20838012,192866
OK,51,77,842,51,2014-08-02T02:50:00,0,20838461,192866
OK,51,77,842,51,2014-08-02T02:55:00,0,20838910,192866
OK,51,77,842,51,2014-08-02T03:00:00,0,20839359,192866
OK,51,77,842,51,2014-08-02T03:05:00,0,20839808,192866
OK,51,77,842,51,2014-08-02T03:10:00,0,20840257,192866
OK,51,77,842,51,2014-08-02T03:15:00,0,20840706,192866
OK,51,77,842,51,2014-08-02T03:20:00,0,20841155,192866
OK,51,77,842,51,2014-08-02T03:25:00,0,20841604,192866
OK,51,77,842,51,2014-08-02T03:30:00,0,20842053,192866
OK,51,77,842,51,2014-08-02T03:35:00,0,20842502,192866
OK,51,77,842,51,2014-08-02T03:40:00,0,20842951,192866
OK,51,77,842,51,2014-08-02T03:45:00,0,20843400,192866
OK,51,77,842,51,2014-08-02T03:50:00,0,20843849,192866
OK,51,77,842,51,2014-08-02T03:55:00,0,20844298,192866
OK,66,60,842,66,2014-08-02T06:00:00,0,20851752,192866
OK,66,60,842,66,2014-08-02T06:05:00,0,20852201,192866
OK,66,60,842,66,2014-08-02T06:10:00,0,20852650,192866
OK,66,60,842,66,2014-08-02T06:15:00,0,20853099,192866
OK,66,60,842,66,2014-08-02T06:20:00,0,20853548,192866
OK,54,73,842,54,2014-08-02T06:25:00,1,20853997,192866
OK,54,73,842,54,2014-08-02T06:30:00,1,20854446,192866
OK,66,60,842,66,2014-08-02T06:35:00,1,20854895,192866
OK,66,60,842,66,2014-08-02T06:40:00,0,20855344,192866
OK,66,60,842,66,2014-08-02T06:45:00,0,20855793,192866
OK,82,48,842,82,2014-08-02T06:50:00,1,20856242,192866
OK,82,48,842,82,2014-08-02T06:55:00,0,20856691,192866
OK,82,48,842,82,2014-08-02T07:00:00,0,20857140,192866
OK,82,48,842,82,2014-08-02T07:05:00,0,20857589,192866
OK,82,48,842,82,2014-08-02T07:10:00,0,20858038,192866
OK,82,48,842,82,2014-08-02T07:15:00,0,20858487,192866
OK,82,48,842,82,2014-08-02T07:20:00,0,20858936,192866
OK,82,48,842,82,2014-08-02T07:25:00,0,20859385,192866
OK,82,48,842,82,2014-08-02T07:30:00,0,20859834,192866
OK,70,56,842,70,2014-08-02T07:35:00,1,20860283,192866
OK,70,56,842,70,2014-08-02T07:40:00,0,20860732,192866
OK,68,58,842,68,2014-08-02T07:45:00,1,20861181,192866
OK,80,49,842,80,2014-08-02T07:50:00,2,20861630,192866
OK,82,48,842,82,2014-08-02T07:55:00,2,20862079,192866
OK,75,52,842,75,2014-08-02T08:00:00,1,20862528,192866
OK,75,52,842,75,2014-08-02T08:05:00,0,20862977,192866
OK,67,59,842,67,2014-08-02T08:10:00,1,20863426,192866
OK,61,65,842,61,2014-08-02T08:15:00,2,20863875,192866
OK,61,65,842,61,2014-08-02T08:20:00,2,20864324,192866
OK,65,61,842,65,2014-08-02T08:25:00,2,20864773,192866
OK,70,56,842,70,2014-08-02T08:30:00,1,20865222,192866
OK,70,56,842,70,2014-08-02T08:35:00,1,20865671,192866
OK,70,56,842,70,2014-08-02T08:40:00,2,20866120,192866
OK,70,56,842,70,2014-08-02T08:45:00,2,20866569,192866
OK,73,54,842,73,2014-08-02T08:50:00,6,20867018,192866
OK,76,52,842,76,2014-08-02T08:55:00,5,20867467,192866
OK,95,41,842,95,2014-08-02T09:00:00,3,20867916,192866
OK,69,57,842,69,2014-08-02T09:05:00,4,20868365,192866
OK,76,52,842,76,2014-08-02T09:10:00,4,20868814,192866
OK,81,49,842,81,2014-08-02T09:15:00,2,20869263,192866
OK,78,50,842,78,2014-08-02T09:20:00,3,20869712,192866
OK,70,56,842,70,2014-08-02T09:25:00,4,20870161,192866
OK,71,55,842,71,2014-08-02T09:30:00,3,20870610,192866
OK,76,52,842,76,2014-08-02T09:35:00,4,20871059,192866
OK,76,52,842,76,2014-08-02T09:40:00,4,20871508,192866
OK,69,57,842,69,2014-08-02T09:45:00,3,20871957,192866
OK,71,55,842,71,2014-08-02T09:50:00,4,20872406,192866
OK,70,56,842,70,2014-08-02T09:55:00,6,20872855,192866
OK,69,57,842,69,2014-08-02T10:00:00,5,20873304,192866
OK,69,57,842,69,2014-08-02T10:05:00,3,20873753,192866
OK,75,52,842,75,2014-08-02T10:10:00,3,20874202,192866
OK,75,52,842,75,2014-08-02T10:15:00,3,20874651,192866
OK,74,53,842,74,2014-08-02T10:20:00,2,20875100,192866
OK,76,52,842,76,2014-08-02T10:25:00,2,20875549,192866
OK,75,52,842,75,2014-08-02T10:30:00,3,20875998,192866
OK,75,52,842,75,2014-08-02T10:35:00,1,20876447,192866
OK,69,57,842,69,2014-08-02T10:40:00,1,20876896,192866
OK,70,56,842,70,2014-08-02T10:45:00,2,20877345,192866
OK,72,55,842,72,2014-08-02T10:50:00,2,20877794,192866
OK,77,51,842,77,2014-08-02T10:55:00,4,20878243,192866
OK,72,55,842,72,2014-08-02T11:00:00,3,20878692,192866
OK,85,46,842,85,2014-08-02T11:05:00,0,20879141,192866
OK,68,58,842,68,2014-08-02T11:10:00,2,20879590,192866
OK,72,55,842,72,2014-08-02T11:15:00,3,20880039,192866
OK,77,51,842,77,2014-08-02T11:20:00,2,20880488,192866
OK,60,66,842,60,2014-08-02T11:25:00,1,20880937,192866
OK,60,66,842,60,2014-08-02T11:30:00,1,20881386,192866
OK,59,67,842,59,2014-08-02T11:35:00,1,20881835,192866
OK,60,66,842,60,2014-08-02T11:40:00,2,20882284,192866
OK,61,65,842,61,2014-08-02T11:45:00,1,20882733,192866
OK,81,49,842,81,2014-08-02T11:50:00,2,20883182,192866
OK,69,57,842,69,2014-08-02T11:55:00,3,20883631,192866
OK,67,59,842,67,2014-08-02T12:00:00,0,20884080,192866
OK,59,67,842,59,2014-08-02T12:05:00,2,20884529,192866
OK,60,66,842,60,2014-08-02T12:10:00,4,20884978,192866
OK,65,61,842,65,2014-08-02T12:15:00,2,20885427,192866
OK,70,56,842,70,2014-08-02T12:20:00,1,20885876,192866
OK,74,53,842,74,2014-08-02T12:25:00,1,20886325,192866
OK,74,53,842,74,2014-08-02T12:30:00,3,20886774,192866
OK,79,50,842,79,2014-08-02T12:35:00,1,20887223,192866
OK,70,56,842,70,2014-08-02T12:40:00,2,20887672,192866
OK,68,58,842,68,2014-08-02T12:45:00,3,20888121,192866
OK,68,58,842,68,2014-08-02T12:50:00,1,20888570,192866
OK,62,64,842,62,2014-08-02T12:55:00,1,20889019,192866
OK,62,64,842,62,2014-08-02T13:00:00,1,20889468,192866
OK,63,63,842,63,2014-08-02T13:05:00,1,20889917,192866
OK,63,63,842,63,2014-08-02T13:10:00,1,20890366,192866
OK,63,63,842,63,2014-08-02T13:15:00,1,20890815,192866
OK,63,63,842,63,2014-08-02T13:20:00,0,20891264,192866
OK,67,59,842,67,2014-08-02T13:25:00,2,20891713,192866
OK,65,61,842,65,2014-08-02T13:30:00,1,20892162,192866
OK,95,41,842,95,2014-08-02T13:35:00,1,20892611,192866
OK,62,64,842,62,2014-08-02T13:40:00,3,20893060,192866
OK,62,64,842,62,2014-08-02T13:45:00,3,20893509,192866
OK,68,58,842,68,2014-08-02T13:50:00,4,20893958,192866
OK,67,59,842,67,2014-08-02T13:55:00,3,20894407,192866
OK,66,60,842,66,2014-08-02T14:00:00,0,20894856,192866
OK,66,60,842,66,2014-08-02T14:05:00,0,20895305,192866
OK,79,50,842,79,2014-08-02T14:10:00,1,20895754,192866
OK,66,60,842,66,2014-08-02T14:15:00,1,20896203,192866
OK,66,60,842,66,2014-08-02T14:20:00,1,20896652,192866
OK,70,56,842,70,2014-08-02T14:25:00,1,20897101,192866
OK,62,64,842,62,2014-08-02T14:30:00,1,20897550,192866
OK,62,64,842,62,2014-08-02T14:35:00,0,20897999,192866
OK,80,49,842,80,2014-08-02T14:40:00,1,20898448,192866
OK,80,49,842,80,2014-08-02T14:45:00,0,20898897,192866
OK,67,59,842,67,2014-08-02T14:50:00,1,20899346,192866
OK,67,59,842,67,2014-08-02T14:55:00,1,20899795,192866
OK,71,55,842,71,2014-08-02T15:00:00,1,20900244,192866
OK,71,55,842,71,2014-08-02T15:05:00,1,20900693,192866
OK,58,68,842,58,2014-08-02T15:10:00,1,20901142,192866
OK,58,68,842,58,2014-08-02T15:15:00,1,20901591,192866
OK,58,68,842,58,2014-08-02T15:20:00,0,20902040,192866
OK,62,64,842,62,2014-08-02T15:25:00,1,20902489,192866
OK,62,64,842,62,2014-08-02T15:30:00,0,20902938,192866
OK,62,64,842,62,2014-08-02T15:35:00,0,20903387,192866
OK,76,52,842,76,2014-08-02T15:40:00,2,20903836,192866
OK,72,55,842,72,2014-08-02T15:45:00,4,20904285,192866
OK,70,56,842,70,2014-08-02T15:50:00,2,20904734,192866
OK,84,47,842,84,2014-08-02T15:55:00,1,20905183,192866
OK,84,47,842,84,2014-08-02T16:00:00,0,20905632,192866
OK,71,55,842,71,2014-08-02T16:05:00,1,20906081,192866
OK,71,55,842,71,2014-08-02T16:10:00,1,20906530,192866
OK,71,55,842,71,2014-08-02T16:15:00,0,20906979,192866
OK,71,55,842,71,2014-08-02T16:20:00,0,20907428,192866
OK,56,70,842,56,2014-08-02T16:25:00,1,20907877,192866
OK,56,70,842,56,2014-08-02T16:30:00,0,20908326,192866
OK,56,70,842,56,2014-08-02T16:35:00,0,20908775,192866
OK,56,70,842,56,2014-08-02T16:40:00,0,20909224,192866
OK,56,70,842,56,2014-08-02T16:45:00,0,20909673,192866
OK,69,57,842,69,2014-08-02T16:50:00,1,20910122,192866
OK,69,57,842,69,2014-08-02T16:55:00,0,20910571,192866
OK,69,57,842,69,2014-08-02T17:00:00,0,20911020,192866
OK,69,57,842,69,2014-08-02T17:05:00,0,20911469,192866
OK,69,57,842,69,2014-08-02T17:10:00,3,20911918,192866
OK,70,56,842,70,2014-08-02T17:15:00,2,20912367,192866
OK,69,57,842,69,2014-08-02T17:20:00,0,20912816,192866
OK,69,57,842,69,2014-08-02T17:25:00,0,20913265,192866
OK,69,57,842,69,2014-08-02T17:30:00,0,20913714,192866
OK,53,74,842,53,2014-08-02T17:35:00,1,20914163,192866
OK,53,74,842,53,2014-08-02T17:40:00,0,20914612,192866
OK,65,61,842,65,2014-08-02T17:45:00,1,20915061,192866
OK,67,59,842,67,2014-08-02T17:50:00,2,20915510,192866
OK,69,57,842,69,2014-08-02T17:55:00,1,20915959,192866
OK,69,57,842,69,2014-08-02T18:00:00,0,20916408,192866
OK,62,64,842,62,2014-08-02T18:05:00,2,20916857,192866
OK,64,62,842,64,2014-08-02T18:10:00,1,20917306,192866
OK,64,62,842,64,2014-08-02T18:15:00,0,20917755,192866
OK,64,62,842,64,2014-08-02T18:20:00,0,20918204,192866
OK,64,62,842,64,2014-08-02T18:25:00,0,20918653,192866
OK,64,62,842,64,2014-08-02T18:30:00,0,20919102,192866
OK,60,66,842,60,2014-08-02T18:35:00,1,20919551,192866
OK,60,66,842,60,2014-08-02T18:40:00,1,20920000,192866
OK,60,66,842,60,2014-08-02T18:45:00,0,20920449,192866
OK,60,66,842,60,2014-08-02T18:50:00,0,20920898,192866
OK,60,66,842,60,2014-08-02T18:55:00,0,20921347,192866
OK,60,66,842,60,2014-08-02T19:00:00,0,20921796,192866
OK,60,66,842,60,2014-08-02T19:05:00,0,20922245,192866
OK,60,66,842,60,2014-08-02T19:10:00,0,20922694,192866
OK,60,66,842,60,2014-08-02T19:15:00,0,20923143,192866
OK,60,66,842,60,2014-08-02T19:20:00,0,20923592,192866
OK,60,66,842,60,2014-08-02T19:25:00,0,20924041,192866
OK,60,66,842,60,2014-08-02T19:30:00,0,20924490,192866
OK,60,66,842,60,2014-08-02T19:35:00,0,20924939,192866
OK,60,66,842,60,2014-08-02T19:40:00,0,20925388,192866
OK,60,66,842,60,2014-08-02T19:45:00,0,20925837,192866
OK,60,66,842,60,2014-08-02T19:50:00,0,20926286,192866
OK,60,66,842,60,2014-08-02T19:55:00,0,20926735,192866
OK,60,66,842,60,2014-08-02T20:00:00,0,20927184,192866
OK,60,66,842,60,2014-08-02T20:05:00,0,20927633,192866
OK,60,66,842,60,2014-08-02T20:10:00,0,20928082,192866
OK,60,66,842,60,2014-08-02T20:15:00,0,20928531,192866
OK,60,66,842,60,2014-08-02T20:20:00,0,20928980,192866
OK,60,66,842,60,2014-08-02T20:25:00,0,20929429,192866
OK,60,66,842,60,2014-08-02T20:30:00,0,20929878,192866
OK,60,66,842,60,2014-08-02T20:35:00,0,20930327,192866
OK,60,66,842,60,2014-08-02T20:40:00,0,20930776,192866
OK,60,66,842,60,2014-08-02T20:45:00,0,20931225,192866
OK,60,66,842,60,2014-08-02T20:50:00,0,20931674,192866
OK,60,66,842,60,2014-08-02T20:55:00,0,20932123,192866
OK,60,66,842,60,2014-08-02T21:00:00,0,20932572,192866
OK,60,66,842,60,2014-08-02T21:05:00,0,20933021,192866
OK,60,66,842,60,2014-08-02T21:10:00,0,20933470,192866
OK,60,66,842,60,2014-08-02T21:15:00,0,20933919,192866
OK,60,66,842,60,2014-08-02T21:20:00,0,20934368,192866
OK,52,76,842,52,2014-08-02T21:25:00,0,20934817,192866
OK,52,76,842,52,2014-08-02T21:30:00,0,20935266,192866
OK,52,76,842,52,2014-08-02T21:35:00,0,20935715,192866
OK,52,76,842,52,2014-08-02T21:40:00,0,20936164,192866
OK,52,76,842,52,2014-08-02T21:45:00,0,20936613,192866
OK,52,76,842,52,2014-08-02T21:50:00,0,20937062,192866
OK,52,76,842,52,2014-08-02T21:55:00,0,20937511,192866
OK,52,76,842,52,2014-08-02T22:00:00,0,20937960,192866
OK,52,76,842,52,2014-08-02T22:05:00,0,20938409,192866
OK,64,62,842,64,2014-08-02T22:10:00,1,20938858,192866
OK,64,62,842,64,2014-08-02T22:15:00,0,20939307,192866
OK,64,62,842,64,2014-08-02T22:20:00,0,20939756,192866
OK,64,62,842,64,2014-08-02T22:25:00,0,20940205,192866
OK,64,62,842,64,2014-08-02T22:30:00,0,20940654,192866
OK,64,62,842,64,2014-08-02T22:35:00,0,20941103,192866
OK,64,62,842,64,2014-08-02T22:40:00,0,20941552,192866
OK,64,62,842,64,2014-08-02T22:45:00,0,20942001,192866
OK,64,62,842,64,2014-08-02T22:50:00,0,20942450,192866
OK,64,62,842,64,2014-08-02T22:55:00,0,20942899,192866
OK,64,62,842,64,2014-08-02T23:00:00,0,20943348,192866
OK,64,62,842,64,2014-08-02T23:10:00,0,20943797,192866
OK,64,62,842,64,2014-08-02T23:15:00,0,20944246,192866
OK,64,62,842,64,2014-08-02T23:20:00,0,20944695,192866
OK,64,62,842,64,2014-08-02T23:25:00,0,20945144,192866
OK,64,62,842,64,2014-08-02T23:30:00,0,20945593,192866
OK,64,62,842,64,2014-08-02T23:35:00,0,20946042,192866
OK,64,62,842,64,2014-08-02T23:40:00,0,20946491,192866
OK,64,62,842,64,2014-08-02T23:45:00,0,20946940,192866
OK,64,62,842,64,2014-08-02T23:50:00,0,20947389,192866
OK,64,62,842,64,2014-08-02T23:55:00,0,20947838,192866
OK,64,62,842,64,2014-08-03T00:00:00,0,20948287,192866
OK,64,62,842,64,2014-08-03T00:05:00,0,20948736,192866
OK,64,62,842,64,2014-08-03T00:10:00,0,20949184,192866
OK,64,62,842,64,2014-08-03T00:15:00,0,20949633,192866
OK,64,62,842,64,2014-08-03T00:20:00,0,20950082,192866
OK,64,62,842,64,2014-08-03T00:25:00,0,20950531,192866
OK,64,62,842,64,2014-08-03T00:30:00,0,20950980,192866
OK,64,62,842,64,2014-08-03T00:35:00,0,20951429,192866
OK,64,62,842,64,2014-08-03T00:40:00,0,20951878,192866
OK,50,79,842,50,2014-08-03T00:45:00,1,20952327,192866
OK,60,66,842,60,2014-08-03T00:50:00,2,20952776,192866
OK,70,56,842,70,2014-08-03T00:55:00,0,20953225,192866
OK,70,56,842,70,2014-08-03T01:00:00,0,20953674,192866
OK,70,56,842,70,2014-08-03T01:05:00,0,20954123,192866
OK,70,56,842,70,2014-08-03T01:10:00,0,20954572,192866
OK,70,56,842,70,2014-08-03T01:15:00,0,20955021,192866
OK,70,56,842,70,2014-08-03T01:20:00,0,20955470,192866
OK,70,56,842,70,2014-08-03T01:25:00,0,20955919,192866
OK,70,56,842,70,2014-08-03T01:30:00,0,20956368,192866
OK,70,56,842,70,2014-08-03T01:35:00,0,20956817,192866
OK,70,56,842,70,2014-08-03T01:40:00,0,20957266,192866
OK,70,56,842,70,2014-08-03T01:45:00,0,20957715,192866
OK,70,56,842,70,2014-08-03T01:50:00,0,20958164,192866
OK,70,56,842,70,2014-08-03T01:55:00,0,20958613,192866